Time,TemperatureF,DewpointF,PressureIn,WindDirection,WindDirectionDegrees,WindSpeedMPH,WindSpeedGustMPH,Humidity,HourlyPrecipIn,Conditions,Clouds,dailyrainin,SoftwareType,DateUTC
2013-05-23 00:02:00,55.0,-99.9,29.94,NW,304,11.0,17.0,-999,-99.99,,,-99.99,,2013-05-23 07:02:00,
2013-05-23 00:11:00,55.0,-99.9,29.94,NW,304,11.0,17.0,-999,-99.99,,,-99.99,,2013-05-23 07:11:00,
2013-05-23 00:22:00,55.0,-99.9,29.94,WNW,303,10.0,14.0,-999,-99.99,,,-99.99,,2013-05-23 07:22:00,
2013-05-23 00:32:00,55.0,-99.9,29.94,WNW,289,11.0,16.0,-999,-99.99,,,-99.99,,2013-05-23 07:32:00,
2013-05-23 00:42:00,55.0,-99.9,29.94,West,266,9.0,13.0,-999,-99.99,,,-99.99,,2013-05-23 07:42:00,
2013-05-23 00:59:00,55.0,-99.9,29.94,WNW,288,9.0,14.0,-999,-99.99,,,-99.99,,2013-05-23 07:59:00,
2013-05-23 01:12:00,55.0,-99.9,29.94,WNW,292,11.0,15.0,-999,-99.99,,,-99.99,,2013-05-23 08:12:00,
2013-05-23 01:22:00,55.0,-99.9,29.94,WNW,292,8.0,12.0,-999,-99.99,,,-99.99,,2013-05-23 08:22:00,
2013-05-23 01:32:00,54.0,-99.9,29.94,WNW,292,9.0,13.0,-999,-99.99,,,-99.99,,2013-05-23 08:32:00,
2013-05-23 01:42:00,54.0,-99.9,29.94,WNW,302,9.0,15.0,-999,-99.99,,,-99.99,,2013-05-23 08:42:00,
2013-05-23 01:52:00,-999.0,-99.9,-100.00,WNW,297,15.0,18.0,-999,-99.99,,,-99.99,,2013-05-23 08:52:00,
2013-05-23 02:02:00,53.0,-99.9,29.94,WNW,294,13.0,17.0,-999,-99.99,,,-99.99,,2013-05-23 09:02:00,
2013-05-23 02:11:00,53.0,-99.9,29.94,WNW,294,12.0,19.0,-999,-99.99,,,-99.99,,2013-05-23 09:11:00,
2013-05-23 02:22:00,53.0,-99.9,29.94,WNW,289,11.0,15.0,-999,-99.99,,,-99.99,,2013-05-23 09:22:00,
2013-05-23 02:33:00,53.0,-99.9,29.93,WNW,287,12.0,18.0,-999,-99.99,,,-99.99,,2013-05-23 09:33:00,
2013-05-23 02:42:00,53.0,-99.9,29.93,WNW,299,12.0,17.0,-999,-99.99,,,-99.99,,2013-05-23 09:42:00,
2013-05-23 02:53:00,52.0,-99.9,29.93,WNW,300,14.0,19.0,-999,-99.99,,,-99.99,,2013-05-23 09:53:00,
2013-05-23 03:03:00,52.0,-99.9,29.93,WNW,301,13.0,17.0,-999,-99.99,,,-99.99,,2013-05-23 10:03:00,
2013-05-23 03:13:00,52.0,-99.9,29.93,WNW,303,12.0,17.0,-999,-99.99,,,-99.99,,2013-05-23 10:13:00,
2013-05-23 03:22:00,53.0,-99.9,29.93,WNW,299,12.0,16.0,-999,-99.99,,,-99.99,,2013-05-23 10:22:00,
2013-05-23 03:32:00,53.0,-99.9,29.93,WNW,289,11.0,16.0,-999,-99.99,,,-99.99,,2013-05-23 10:32:00,
2013-05-23 03:42:00,52.0,-99.9,29.93,WNW,294,14.0,18.0,-999,-99.99,,,-99.99,,2013-05-23 10:42:00,
2013-05-23 03:52:00,52.0,-99.9,29.93,WNW,288,12.0,17.0,-999,-99.99,,,-99.99,,2013-05-23 10:52:00,
2013-05-23 04:02:00,52.0,-99.9,29.93,NW,304,15.0,20.0,-999,-99.99,,,-99.99,,2013-05-23 11:02:00,
2013-05-23 04:12:00,52.0,-99.9,29.93,WNW,296,15.0,21.0,-999,-99.99,,,-99.99,,2013-05-23 11:12:00,
2013-05-23 04:22:00,52.0,-99.9,29.93,NW,304,14.0,19.0,-999,-99.99,,,-99.99,,2013-05-23 11:22:00,
2013-05-23 04:32:00,52.0,-99.9,29.93,WNW,294,13.0,19.0,-999,-99.99,,,-99.99,,2013-05-23 11:32:00,
2013-05-23 04:42:00,52.0,-99.9,29.93,WNW,294,13.0,19.0,-999,-99.99,,,-99.99,,2013-05-23 11:42:00,
2013-05-23 04:52:00,52.0,-99.9,29.93,WNW,295,14.0,20.0,-999,-99.99,,,-99.99,,2013-05-23 11:52:00,
2013-05-23 05:02:00,51.0,-99.9,29.93,WNW,299,15.0,20.0,-999,-99.99,,,-99.99,,2013-05-23 12:02:00,
2013-05-23 05:12:00,51.0,-99.9,29.94,WNW,300,14.0,22.0,-999,-99.99,,,-99.99,,2013-05-23 12:12:00,
2013-05-23 05:22:00,51.0,-99.9,29.94,WNW,293,14.0,20.0,-999,-99.99,,,-99.99,,2013-05-23 12:22:00,
2013-05-23 05:32:00,51.0,-99.9,29.94,WNW,292,13.0,17.0,-999,-99.99,,,-99.99,,2013-05-23 12:32:00,
2013-05-23 05:42:00,51.0,-99.9,29.94,WNW,290,13.0,18.0,-999,-99.99,,,-99.99,,2013-05-23 12:42:00,
2013-05-23 05:52:00,51.0,-99.9,29.94,WNW,297,14.0,19.0,-999,-99.99,,,-99.99,,2013-05-23 12:52:00,
2013-05-23 06:02:00,51.0,-99.9,29.94,WNW,300,13.0,17.0,-999,-99.99,,,-99.99,,2013-05-23 13:02:00,
2013-05-23 06:11:00,51.0,-99.9,29.94,WNW,294,10.0,16.0,-999,-99.99,,,-99.99,,2013-05-23 13:11:00,
2013-05-23 06:22:00,51.0,-99.9,29.94,WNW,299,13.0,17.0,-999,-99.99,,,-99.99,,2013-05-23 13:22:00,
2013-05-23 06:32:00,51.0,-99.9,29.95,WNW,291,12.0,15.0,-999,-99.99,,,-99.99,,2013-05-23 13:32:00,
2013-05-23 06:42:00,51.0,-99.9,29.95,WNW,294,12.0,17.0,-999,-99.99,,,-99.99,,2013-05-23 13:42:00,
2013-05-23 06:52:00,51.0,-99.9,29.95,WNW,294,12.0,17.0,-999,-99.99,,,-99.99,,2013-05-23 13:52:00,
2013-05-23 07:02:00,51.0,-99.9,29.96,WNW,301,13.0,16.0,-999,-99.99,,,-99.99,,2013-05-23 14:02:00,
2013-05-23 07:11:00,51.0,-99.9,29.96,WNW,298,11.0,18.0,-999,-99.99,,,-99.99,,2013-05-23 14:11:00,
2013-05-23 07:22:00,51.0,-99.9,29.96,WNW,295,10.0,15.0,-999,-99.99,,,-99.99,,2013-05-23 14:22:00,
2013-05-23 07:32:00,51.0,-99.9,29.96,WNW,293,11.0,15.0,-999,-99.99,,,-99.99,,2013-05-23 14:32:00,
2013-05-23 07:42:00,52.0,-99.9,29.96,WNW,299,11.0,14.0,-999,-99.99,,,-99.99,,2013-05-23 14:42:00,
2013-05-23 07:52:00,52.0,-99.9,29.96,WNW,293,7.0,15.0,-999,-99.99,,,-99.99,,2013-05-23 14:52:00,
2013-05-23 08:01:00,52.0,-99.9,29.96,WNW,288,9.0,13.0,-999,-99.99,,,-99.99,,2013-05-23 15:01:00,
2013-05-23 08:11:00,53.0,-99.9,29.96,WNW,292,7.0,11.0,-999,-99.99,,,-99.99,,2013-05-23 15:11:00,
2013-05-23 08:22:00,53.0,-99.9,29.96,NW,313,9.0,12.0,-999,-99.99,,,-99.99,,2013-05-23 15:22:00,
2013-05-23 08:33:00,53.0,-99.9,29.97,WNW,291,8.0,11.0,-999,-99.99,,,-99.99,,2013-05-23 15:33:00,
2013-05-23 08:43:00,53.0,-99.9,29.97,WNW,292,7.0,10.0,-999,-99.99,,,-99.99,,2013-05-23 15:43:00,
2013-05-23 08:53:00,54.0,-99.9,29.97,WNW,284,6.0,9.0,-999,-99.99,,,-99.99,,2013-05-23 15:53:00,
2013-05-23 09:03:00,54.0,-99.9,29.97,West,271,5.0,8.0,-999,-99.99,,,-99.99,,2013-05-23 16:03:00,
2013-05-23 09:13:00,53.0,-99.9,29.98,West,265,5.0,9.0,-999,-99.99,,,-99.99,,2013-05-23 16:13:00,
2013-05-23 09:23:00,54.0,-99.9,29.98,West,279,5.0,9.0,-999,-99.99,,,-99.99,,2013-05-23 16:23:00,
2013-05-23 09:34:00,54.0,-99.9,29.98,WSW,247,5.0,8.0,-999,-99.99,,,-99.99,,2013-05-23 16:34:00,
2013-05-23 09:43:00,54.0,-99.9,29.98,WSW,252,6.0,9.0,-999,-99.99,,,-99.99,,2013-05-23 16:43:00,
2013-05-23 09:53:00,54.0,-99.9,29.99,WSW,244,4.0,7.0,-999,-99.99,,,-99.99,,2013-05-23 16:53:00,
2013-05-23 10:03:00,55.0,-99.9,29.99,WSW,244,5.0,6.0,-999,-99.99,,,-99.99,,2013-05-23 17:03:00,
2013-05-23 10:12:00,55.0,-99.9,29.99,WSW,244,5.0,6.0,-999,-99.99,,,-99.99,,2013-05-23 17:12:00,
2013-05-23 10:23:00,56.0,-99.9,29.99,WNW,283,2.0,6.0,-999,-99.99,,,-99.99,,2013-05-23 17:23:00,
2013-05-23 10:34:00,56.0,-99.9,29.99,SSW,211,3.0,4.0,-999,-99.99,,,-99.99,,2013-05-23 17:34:00,
2013-05-23 10:43:00,56.0,-99.9,29.99,South,185,4.0,7.0,-999,-99.99,,,-99.99,,2013-05-23 17:43:00,
2013-05-23 10:53:00,56.0,-99.9,29.99,South,187,6.0,8.0,-999,-99.99,,,-99.99,,2013-05-23 17:53:00,
2013-05-23 11:02:00,55.0,-99.9,29.99,South,181,6.0,8.0,-999,-99.99,,,-99.99,,2013-05-23 18:02:00,
2013-05-23 11:11:00,55.0,-99.9,30.00,South,188,7.0,9.0,-999,-99.99,,,-99.99,,2013-05-23 18:11:00,
2013-05-23 11:22:00,55.0,-99.9,30.00,South,190,7.0,9.0,-999,-99.99,,,-99.99,,2013-05-23 18:22:00,
2013-05-23 11:32:00,55.0,-99.9,30.00,South,190,7.0,9.0,-999,-99.99,,,-99.99,,2013-05-23 18:32:00,
2013-05-23 11:42:00,55.0,-99.9,30.00,South,190,7.0,9.0,-999,-99.99,,,-99.99,,2013-05-23 18:42:00,
2013-05-23 11:52:00,56.0,-99.9,30.00,South,190,8.0,10.0,-999,-99.99,,,-99.99,,2013-05-23 18:52:00,
2013-05-23 12:02:00,57.0,-99.9,30.01,SSW,199,8.0,10.0,-999,-99.99,,,-99.99,,2013-05-23 19:02:00,
2013-05-23 12:11:00,56.0,-99.9,30.01,SSW,211,6.0,10.0,-999,-99.99,,,-99.99,,2013-05-23 19:11:00,
2013-05-23 12:22:00,56.0,-99.9,30.01,SSW,206,5.0,10.0,-999,-99.99,,,-99.99,,2013-05-23 19:22:00,
2013-05-23 12:32:00,57.0,-99.9,30.01,SSW,208,7.0,10.0,-999,-99.99,,,-99.99,,2013-05-23 19:32:00,
2013-05-23 12:42:00,57.0,-99.9,30.01,SW,221,9.0,13.0,-999,-99.99,,,-99.99,,2013-05-23 19:42:00,
2013-05-23 12:52:00,57.0,-99.9,30.01,SW,220,9.0,12.0,-999,-99.99,,,-99.99,,2013-05-23 19:52:00,
2013-05-23 13:02:00,58.0,-99.9,30.01,SW,219,8.0,11.0,-999,-99.99,,,-99.99,,2013-05-23 20:02:00,
2013-05-23 13:12:00,58.0,-99.9,30.01,SW,219,8.0,11.0,-999,-99.99,,,-99.99,,2013-05-23 20:12:00,
2013-05-23 13:22:00,58.0,-99.9,30.01,SW,219,9.0,13.0,-999,-99.99,,,-99.99,,2013-05-23 20:22:00,
2013-05-23 13:32:00,58.0,-99.9,30.01,SW,220,8.0,13.0,-999,-99.99,,,-99.99,,2013-05-23 20:32:00,
2013-05-23 13:42:00,58.0,-99.9,30.01,SW,217,8.0,12.0,-999,-99.99,,,-99.99,,2013-05-23 20:42:00,
2013-05-23 13:52:00,59.0,-99.9,30.01,SW,218,8.0,12.0,-999,-99.99,,,-99.99,,2013-05-23 20:52:00,
2013-05-23 14:01:00,59.0,-99.9,30.01,SW,225,10.0,13.0,-999,-99.99,,,-99.99,,2013-05-23 21:01:00,
2013-05-23 14:11:00,59.0,-99.9,30.01,SW,221,9.0,13.0,-999,-99.99,,,-99.99,,2013-05-23 21:11:00,
2013-05-23 14:22:00,59.0,-99.9,30.01,SW,223,11.0,13.0,-999,-99.99,,,-99.99,,2013-05-23 21:22:00,
2013-05-23 14:33:00,59.0,-99.9,30.01,SW,222,12.0,15.0,-999,-99.99,,,-99.99,,2013-05-23 21:33:00,
2013-05-23 14:43:00,59.0,-99.9,30.01,SW,222,12.0,15.0,-999,-99.99,,,-99.99,,2013-05-23 21:43:00,
2013-05-23 14:53:00,59.0,-99.9,30.01,SW,222,12.0,15.0,-999,-99.99,,,-99.99,,2013-05-23 21:53:00,
2013-05-23 15:03:00,59.0,-99.9,30.01,SW,222,12.0,15.0,-999,-99.99,,,-99.99,,2013-05-23 22:03:00,
2013-05-23 15:12:00,60.0,-99.9,30.01,SW,223,11.0,17.0,-999,-99.99,,,-99.99,,2013-05-23 22:12:00,
2013-05-23 15:23:00,60.0,-99.9,30.01,SW,223,11.0,17.0,-999,-99.99,,,-99.99,,2013-05-23 22:23:00,
2013-05-23 15:33:00,61.0,-99.9,30.00,SW,222,12.0,17.0,-999,-99.99,,,-99.99,,2013-05-23 22:33:00,
2013-05-23 15:42:00,61.0,-99.9,30.00,SW,222,11.0,16.0,-999,-99.99,,,-99.99,,2013-05-23 22:42:00,
2013-05-23 15:52:00,61.0,-99.9,30.00,SW,216,9.0,16.0,-999,-99.99,,,-99.99,,2013-05-23 22:52:00,
2013-05-23 16:02:00,60.0,-99.9,30.00,SSW,202,11.0,16.0,-999,-99.99,,,-99.99,,2013-05-23 23:02:00,
2013-05-23 16:12:00,60.0,-99.9,30.00,SSW,202,11.0,16.0,-999,-99.99,,,-99.99,,2013-05-23 23:12:00,
2013-05-23 16:22:00,63.0,-99.9,30.00,SW,219,8.0,12.0,-999,-99.99,,,-99.99,,2013-05-23 23:22:00,
2013-05-23 16:32:00,63.0,-99.9,30.00,SSW,196,8.0,11.0,-999,-99.99,,,-99.99,,2013-05-23 23:32:00,
2013-05-23 16:42:00,63.0,-99.9,30.00,SSW,196,8.0,11.0,-999,-99.99,,,-99.99,,2013-05-23 23:42:00,
2013-05-23 16:52:00,64.0,-99.9,30.00,SW,227,8.0,10.0,-999,-99.99,,,-99.99,,2013-05-23 23:52:00,
2013-05-23 17:01:00,64.0,-99.9,29.99,SW,218,8.0,11.0,-999,-99.99,,,-99.99,,2013-05-24 00:01:00,
2013-05-23 17:12:00,64.0,-99.9,29.99,SW,218,8.0,11.0,-999,-99.99,,,-99.99,,2013-05-24 00:12:00,
2013-05-23 17:22:00,64.0,-99.9,29.99,SW,227,12.0,15.0,-999,-99.99,,,-99.99,,2013-05-24 00:22:00,
2013-05-23 17:32:00,64.0,-99.9,29.98,SW,230,12.0,17.0,-999,-99.99,,,-99.99,,2013-05-24 00:32:00,
2013-05-23 17:42:00,64.0,-99.9,29.99,SW,234,11.0,15.0,-999,-99.99,,,-99.99,,2013-05-24 00:42:00,
2013-05-23 17:52:00,64.0,-99.9,29.99,SW,232,11.0,13.0,-999,-99.99,,,-99.99,,2013-05-24 00:52:00,
2013-05-23 18:01:00,65.0,-99.9,29.99,WSW,240,9.0,14.0,-999,-99.99,,,-99.99,,2013-05-24 01:01:00,
2013-05-23 18:12:00,65.0,-99.9,29.99,WSW,244,8.0,11.0,-999,-99.99,,,-99.99,,2013-05-24 01:12:00,
2013-05-23 18:22:00,65.0,-99.9,29.98,WSW,237,6.0,9.0,-999,-99.99,,,-99.99,,2013-05-24 01:22:00,
2013-05-23 18:32:00,66.0,-99.9,29.98,WSW,250,5.0,7.0,-999,-99.99,,,-99.99,,2013-05-24 01:32:00,
2013-05-23 18:42:00,66.0,-99.9,29.98,WSW,241,4.0,7.0,-999,-99.99,,,-99.99,,2013-05-24 01:42:00,
2013-05-23 18:52:00,67.0,-99.9,29.98,WNW,295,9.0,13.0,-999,-99.99,,,-99.99,,2013-05-24 01:52:00,
2013-05-23 19:02:00,67.0,-99.9,29.98,NW,304,9.0,13.0,-999,-99.99,,,-99.99,,2013-05-24 02:02:00,
2013-05-23 19:12:00,66.0,-99.9,29.98,NW,308,12.0,16.0,-999,-99.99,,,-99.99,,2013-05-24 02:12:00,
2013-05-23 19:22:00,65.0,-99.9,29.98,NW,304,10.0,14.0,-999,-99.99,,,-99.99,,2013-05-24 02:22:00,
2013-05-23 19:32:00,65.0,-99.9,29.98,NW,313,11.0,14.0,-999,-99.99,,,-99.99,,2013-05-24 02:32:00,
2013-05-23 19:42:00,64.0,-99.9,29.98,NW,308,11.0,16.0,-999,-99.99,,,-99.99,,2013-05-24 02:42:00,
2013-05-23 19:52:00,63.0,-99.9,29.98,NW,304,12.0,17.0,-999,-99.99,,,-99.99,,2013-05-24 02:52:00,
2013-05-23 20:02:00,63.0,-99.9,29.98,WNW,303,11.0,17.0,-999,-99.99,,,-99.99,,2013-05-24 03:02:00,
2013-05-23 20:11:00,62.0,-99.9,29.98,NW,313,13.0,18.0,-999,-99.99,,,-99.99,,2013-05-24 03:11:00,
2013-05-23 20:22:00,62.0,-99.9,29.98,WNW,302,13.0,17.0,-999,-99.99,,,-99.99,,2013-05-24 03:22:00,
2013-05-23 20:33:00,61.0,-99.9,29.98,WNW,302,15.0,19.0,-999,-99.99,,,-99.99,,2013-05-24 03:33:00,
2013-05-23 20:43:00,60.0,-99.9,29.98,WNW,295,14.0,19.0,-999,-99.99,,,-99.99,,2013-05-24 03:43:00,
2013-05-23 20:53:00,60.0,-99.9,29.98,WNW,295,14.0,19.0,-999,-99.99,,,-99.99,,2013-05-24 03:53:00,
2013-05-23 21:03:00,60.0,-99.9,29.99,WNW,300,14.0,18.0,-999,-99.99,,,-99.99,,2013-05-24 04:03:00,
2013-05-23 21:13:00,59.0,-99.9,29.99,WNW,298,11.0,16.0,-999,-99.99,,,-99.99,,2013-05-24 04:13:00,
2013-05-23 21:23:00,60.0,-99.9,29.99,NW,314,14.0,19.0,-999,-99.99,,,-99.99,,2013-05-24 04:23:00,
2013-05-23 21:33:00,59.0,-99.9,30.00,NW,326,11.0,15.0,-999,-99.99,,,-99.99,,2013-05-24 04:33:00,
2013-05-23 21:42:00,60.0,-99.9,30.00,NW,317,11.0,14.0,-999,-99.99,,,-99.99,,2013-05-24 04:42:00,
2013-05-23 21:53:00,59.0,-99.9,30.01,NW,308,11.0,17.0,-999,-99.99,,,-99.99,,2013-05-24 04:53:00,
2013-05-23 22:02:00,59.0,-99.9,30.01,NW,304,6.0,10.0,-999,-99.99,,,-99.99,,2013-05-24 05:02:00,
2013-05-23 22:12:00,59.0,-99.9,30.01,WNW,297,7.0,10.0,-999,-99.99,,,-99.99,,2013-05-24 05:12:00,
2013-05-23 22:22:00,58.0,-99.9,30.01,SW,228,6.0,9.0,-999,-99.99,,,-99.99,,2013-05-24 05:22:00,
2013-05-23 22:32:00,58.0,-99.9,30.01,SW,228,6.0,9.0,-999,-99.99,,,-99.99,,2013-05-24 05:32:00,
2013-05-23 22:42:00,58.0,-99.9,30.01,SW,228,6.0,9.0,-999,-99.99,,,-99.99,,2013-05-24 05:42:00,
2013-05-23 22:52:00,57.0,-99.9,30.01,SSW,210,5.0,7.0,-999,-99.99,,,-99.99,,2013-05-24 05:52:00,
2013-05-23 23:02:00,57.0,-99.9,30.01,SW,233,4.0,7.0,-999,-99.99,,,-99.99,,2013-05-24 06:02:00,
2013-05-23 23:12:00,58.0,-99.9,30.01,SW,228,4.0,6.0,-999,-99.99,,,-99.99,,2013-05-24 06:12:00,
2013-05-23 23:22:00,57.0,-99.9,30.01,SW,220,3.0,5.0,-999,-99.99,,,-99.99,,2013-05-24 06:22:00,
2013-05-23 23:32:00,58.0,-99.9,30.01,WNW,299,10.0,12.0,-999,-99.99,,,-99.99,,2013-05-24 06:32:00,
2013-05-23 23:42:00,58.0,-99.9,30.01,WNW,299,10.0,12.0,-999,-99.99,,,-99.99,,2013-05-24 06:42:00,
2013-05-23 23:52:00,58.0,-99.9,30.01,WNW,299,10.0,12.0,-999,-99.99,,,-99.99,,2013-05-24 06:52:00,